Tracking 20083 objects as of 9-Dec-2019
HD Live streaming from Space Station
objects crossing your sky now

FENGYUN 1C DEB

Track FENGYUN 1C DEB now!
10-day predictions


NORAD ID: 30875
Int'l Code: 1999-025AXM
Perigee: 647.2 km
Apogee: 709.5 km
Inclination: 99.1 °
Period: 98.2 minutes
Semi major axis: 7049 km
RCS: 0.0106 m2 (small)
Launch date: May 10, 1999
Source: People's Republic of China (PRC)
Launch site: Taiyaun Space Center, China (TSC)

Note: This is SATELLITE DEBRIS
aabbcc
Your satellite tracking list
Your tracking list is empty




NASA's NSSDC Master Catalog

Two Line Element Set (TLE):
1 30875U 99025AXM 19342.95556525 +.00006176 +00000-0 +11003-2 0  9996
2 30875 099.1158 229.5499 0044205 299.3936 060.2855 14.66833725668476
Source of the keplerian elements: AFSPC